Regional Weather Roundup
Issued by NWS

Home | Current Version | Previous Version | Text Only | Print | Product List | Glossary On
Versions: 1 2 3 4 5 6 7 8 9 10 11 12 13 14 15 16 17 18 19 20 21 22 23 24 25 26 27 28 29 30 31 32 33 34 35 36 37 38 39 40 41 42 43 44 45 46 47 48 49 50
000
ASUS43 KOAX 181010
RWRNE

WEATHER ROUNDUP FOR NEBRASKA
NATIONAL WEATHER SERVICE OMAHA NE
400 AM CST SAT NOV 18 2017

NOTES: SATELLITE DATA IS BEING USED TO AUGMENT CLOUD COVER ABOVE
       12000 FEET.
       "FAIR" INDICATES FEW OR NO CLOUDS BELOW 12,000 FEET WITH NO
       SIGNIFICANT WEATHER AND/OR OBSTRUCTIONS TO VISIBILITY.


NEZ001>004-019>022-054>056-181100-
NEBRASKA PANHANDLE

CITY           SKY/WX    TMP DP  RH WIND       PRES   REMARKS
SCOTTSBLUFF    CLEAR     33  21  61 NW14G23   30.07R WCI  23
ALLIANCE       CLEAR     32  27  81 NW16      30.00R WCI  21
CHADRON        CLEAR     33  27  78 W15       30.03R WCI  23
GORDON         FAIR      34  27  74 NW16G22   29.97R WCI  24
KIMBALL        CLEAR     31  23  72 NW18G29   30.05R WCI  20
SIDNEY         CLOUDY    33  25  72 NW20      30.01R WCI  21
$$

NEZ057>060-069>072-079>082-181100-
SOUTHWEST NEBRASKA

CITY           SKY/WX    TMP DP  RH WIND       PRES   REMARKS
NORTH PLATTE   CLOUDY    38  35  89 NW14      29.91R WCI  30
IMPERIAL       CLOUDY    39  36  89 NW18      29.95R WCI  30
LEXINGTON      LGT RAIN  38  34  87 N20G29    29.86R WCI  28
MCCOOK         LGT RAIN  39  37  92 NW15      29.89R WCI  31
OGALLALA       CLOUDY    40  35  84 NW21G26   29.95R WCI  30
$$

NEZ005>010-023>029-035>040-094-181100-
NORTH CENTRAL NEBRASKA

CITY           SKY/WX    TMP DP  RH WIND       PRES   REMARKS
VALENTINE      CLOUDY    37  35  92 W8        29.92R WCI  31
AINSWORTH      CLOUDY    36  36  99 NW13      29.90R WCI  28
BROKEN BOW     CLOUDY    37  33  85 N17       29.86R WCI  27
O`NEILL        CLOUDY    37  33  87 NW12G17   29.83S WCI  29
ORD            CLOUDY    38  35  89 NW13      29.83R WCI  30
THEDFORD       CLOUDY    36  35  96 NW15G21   29.91R WCI  26
$$

NEZ041-046>049-061>064-073>077-083>087-181100-
SOUTH CENTRAL NEBRASKA

CITY           SKY/WX    TMP DP  RH WIND       PRES   REMARKS
GRAND ISLAND   CLOUDY    39  37  92 NW20      29.80R WCI  29
AURORA         LGT RAIN  38  37  94 N18G25    29.79R WCI  28
HASTINGS       LGT RAIN  38  35  89 N21G35    29.80R WCI  28
HEBRON         LGT RAIN  42  39  91 N16G24    29.74R
HOLDREGE       DRIZZLE   37  37  97 N15G24    29.83R WCI  28
KEARNEY        LGT RAIN  37  35  92 N20       29.82R WCI  27
YORK           LGT RAIN  39  39 100 N15G22    29.76R WCI  31
$$

NEZ011>018-030>034-042>045-181100-
NORTHEAST NEBRASKA

CITY           SKY/WX    TMP DP  RH WIND       PRES   REMARKS
NORFOLK        CLOUDY    37  33  85 N16       29.77R WCI  28
ALBION         CLOUDY    39  33  80 N15       29.80R WCI  30
BLAIR          RAIN      39  37  92 N16G25    29.70R WCI  30
COLUMBUS       CLOUDY    39  35  86 NW17G28   29.78R WCI  30
FREMONT        CLOUDY    39  37  93 NW15G22   29.74R WCI  31
TEKAMAH        CLOUDY    39  35  86 N17       29.74R WCI  30
WAYNE          CLOUDY    37  35  92 N13       29.77R WCI  29
$$

NEZ050>053-065>068-078-088>093-181100-
SOUTHEAST NEBRASKA

CITY           SKY/WX    TMP DP  RH WIND       PRES   REMARKS
LINCOLN        LGT RAIN  41  38  89 N21       29.72R
OMAHA EPPLEY   LGT RAIN  40  36  86 N20G25    29.70R WCI  30
BEATRICE       LGT RAIN  42  40  95 N25G31    29.68F
FALLS CITY     CLOUDY    45  41  86 N18G30    29.59R
NEBRASKA CITY  LGT RAIN  42  42 100 N29G35    29.62R
PLATTSMOUTH    LGT RAIN  42  41  98 N13       29.67R
$$

NEZ044-045-051>053-067-181100-
OMAHA AREA

CITY           SKY/WX    TMP DP  RH WIND       PRES   REMARKS
OMAHA EPPLEY   LGT RAIN  40  36  86 N20G25    29.70R WCI  30
BLAIR          RAIN      39  37  92 N16G25    29.70R WCI  30
FREMONT        CLOUDY    39  37  93 NW15G22   29.74R WCI  31
MILLARD        DRIZZLE   42  39  90 NW9G16    29.71R
OFFUTT AFB     LGT RAIN  41  38  89 N14G25    29.68R
PLATTSMOUTH    LGT RAIN  42  41  98 N13       29.67R
WAHOO          LGT RAIN  40  38  93 NW14G21   29.74R WCI  32
$$




USA.gov is the U.S. government's official web portal to all federal, state and local government web resources and services.